SA7AHC Weather Reports


time (UTC)temp
C
wind
direction
speed
KPH
gust
KPH
rain 1hr
cm
rain 24hr
cm
rain mn
cm
humidity
%
barometer
mb
20260502195341 14 207 3.2 8.0 0.00 0.00 0.00 51 1013.6
20260502194332 15 225 1.6 6.4 0.00 0.00 0.00 48 1013.7
20260502193332 16 227 3.2 8.0 0.00 0.00 0.00 46 1013.7
20260502192331 16 224 3.2 8.0 0.00 0.00 0.00 44 1013.7
20260502191338 17 222 4.8 12.9 0.00 0.00 0.00 43 1013.7
20260502190332 17 239 6.4 12.9 0.00 0.00 0.00 41 1013.6
20260502185336 17 238 8.0 16.1 0.00 0.00 0.00 41 1013.6
20260502184335 18 247 9.7 20.9 0.00 0.00 0.00 39 1013.6
20260502183335 18 262 8.0 16.1 0.00 0.00 0.00 39 1013.7
20260502182339 19 267 11.3 19.3 0.00 0.00 0.00 37 1013.7
20260502181334 19 199 11.3 20.9 0.00 0.00 0.00 37 1013.9
20260502180334 19 263 8.0 22.5 0.00 0.00 0.00 36 1013.5
20260502170348 21 240 12.9 29.0 0.00 0.00 0.00 32 1013.6
20260502164333 22 208 12.9 25.7 0.00 0.00 0.00 32 1013.7
20260502163334 22 288 14.5 33.8 0.00 0.00 0.00 31 1014.1
20260502162334 22 271 14.5 37.0 0.00 0.00 0.00 30 1014.1
20260502161335 22 223 11.3 29.0 0.00 0.00 0.00 30 1014.4
20260502160331 22 240 16.1 33.8 0.00 0.00 0.00 29 1014.4
20260502152331 23 206 14.5 35.4 0.00 0.00 0.00 28 1015.0
20260502151331 23 208 14.5 30.6 0.00 0.00 0.00 27 1015.0
20260502150332 23 181 12.9 29.0 0.00 0.00 0.00 27 1015.0
20260502130310 22 157 17.7 35.4 0.00 0.00 0.00 30 1016.7
20260502123307 23 210 11.3 24.1 0.00 0.00 0.00 32 1017.2
20260502122309 22 275 16.1 40.2 0.00 0.00 0.00 34 1017.2
20260502121306 22 211 16.1 37.0 0.00 0.00 0.00 32 1017.3
20260502120309 23 185 9.7 24.1 0.00 0.00 0.00 32 1017.8
20260502115308 22 270 14.5 29.0 0.00 0.00 0.00 33 1017.8
20260502114306 22 251 14.5 30.6 0.00 0.00 0.00 32 1017.9
20260502113309 22 211 12.9 30.6 0.00 0.00 0.00 35 1018.1
20260502112307 21 225 12.9 30.6 0.00 0.00 0.00 35 1018.1
20260502111309 21 259 14.5 35.4 0.00 0.00 0.00 37 1018.3
20260502110306 21 224 12.9 25.7 0.00 0.00 0.00 36 1018.5
20260502105306 21 250 11.3 40.2 0.00 0.00 0.00 35 1018.5
20260502104308 21 235 16.1 37.0 0.00 0.00 0.00 36 1018.8
20260502103304 21 274 12.9 35.4 0.00 0.00 0.00 35 1019.1
20260502102306 21 269 11.3 24.1 0.00 0.00 0.00 36 1019.1
20260502101304 20 262 12.9 25.7 0.00 0.00 0.00 37 1019.2
20260502100305 20 195 11.3 30.6 0.00 0.00 0.00 40 1019.6
20260502091253 19 214 11.3 29.0 0.00 0.00 0.00 41 1019.8
20260502090255 19 224 11.3 30.6 0.00 0.00 0.00 41 1019.9
20260502071238 15 254 9.7 20.9 0.00 0.00 0.00 54 1020.7
20260502070232 15 218 6.4 16.1 0.00 0.00 0.00 55 1020.7
20260502065234 14 254 6.4 14.5 0.00 0.00 0.00 57 1020.7
20260502064232 13 171 4.8 11.3 0.00 0.00 0.00 57 1020.7
20260502063233 13 242 8.0 16.1 0.00 0.00 0.00 59 1020.7
20260502062229 12 218 6.4 12.9 0.00 0.00 0.00 59 1020.9
20260502061232 12 222 6.4 14.5 0.00 0.00 0.00 60 1020.8
20260502060236 11 256 8.0 14.5 0.00 0.00 0.00 61 1020.9
20260502055228 11 211 6.4 14.5 0.00 0.00 0.00 62 1020.9
20260502054223 11 240 8.0 12.9 0.00 0.00 0.00 63 1020.9
20260502053221 10 255 8.0 16.1 0.00 0.00 0.00 64 1020.7
20260502052222 10 245 6.4 11.3 0.00 0.00 0.00 65 1020.9
20260502051222 9 234 8.0 14.5 0.00 0.00 0.00 66 1020.8
20260502050226 8 247 4.8 12.9 0.00 0.00 0.00 70 1021.0
20260502045226 8 219 4.8 11.3 0.00 0.00 0.00 72 1021.0
20260502044221 7 240 3.2 8.0 0.00 0.00 0.00 74 1020.9
20260502043222 7 225 4.8 9.7 0.00 0.00 0.00 74 1020.8
20260502042219 6 221 3.2 9.7 0.00 0.00 0.00 75 1020.7
20260502041219 6 219 4.8 8.0 0.00 0.00 0.00 74 1020.7
20260502040216 6 238 4.8 9.7 0.00 0.00 0.00 73 1020.9
20260502035218 6 229 4.8 9.7 0.00 0.00 0.00 74 1020.9
20260502034219 6 202 4.8 12.9 0.00 0.00 0.00 74 1020.9
20260502033213 6 240 4.8 9.7 0.00 0.00 0.00 74 1020.8
20260502032215 6 218 3.2 9.7 0.00 0.00 0.00 73 1021.1
20260502031210 6 224 4.8 12.9 0.00 0.00 0.00 73 1021.1
20260502030213 6 256 3.2 9.7 0.00 0.00 0.00 73 1021.1
20260502025212 6 187 3.2 8.0 0.00 0.00 0.00 73 1021.3
20260502024206 6 229 3.2 9.7 0.00 0.00 0.00 73 1021.3
20260502023208 6 235 4.8 9.7 0.00 0.00 0.00 73 1021.3
20260502022207 6 212 3.2 8.0 0.00 0.00 0.00 73 1021.3
20260502020208 6 222 4.8 11.3 0.00 0.00 0.00 71 1021.6
20260502015206 6 239 4.8 9.7 0.00 0.00 0.00 71 1021.8
20260502014206 6 234 4.8 9.7 0.00 0.00 0.00 72 1021.8
20260502013205 6 220 3.2 9.7 0.00 0.00 0.00 72 1021.8
20260502012206 6 213 3.2 8.0 0.00 0.00 0.00 74 1022.0
20260502011205 6 216 4.8 11.3 0.00 0.00 0.00 74 1022.0
20260502010206 6 229 3.2 9.7 0.00 0.00 0.00 74 1022.0
20260502005206 6 261 0.0 8.0 0.00 0.00 0.00 75 1022.2
20260502004205 6 263 0.0 0.0 0.00 0.00 0.00 75 1022.2
20260502003146 5 263 0.0 1.6 0.00 0.00 0.00 75 1022.3
20260502002139 5 263 0.0 0.0 0.00 0.00 0.00 74 1022.4
20260502001133 6 263 0.0 4.8 0.00 0.00 0.00 74 1022.4
20260502000132 6 263 0.0 0.0 0.00 0.00 0.00 73 1022.5
20260501235132 6 263 0.0 1.6 0.00 0.00 0.00 73 1022.8
20260501234122 6 263 0.0 3.2 0.00 0.00 0.00 73 1022.8
20260501233122 6 263 0.0 0.0 0.00 0.00 0.00 73 1023.0
20260501232109 6 263 1.6 4.8 0.00 0.00 0.00 72 1023.0
20260501231112 6 263 1.6 6.4 0.00 0.00 0.00 72 1023.0
20260501230110 6 264 1.6 6.4 0.00 0.00 0.00 71 1023.1
20260501225107 6 234 1.6 6.4 0.00 0.00 0.00 71 1023.2
20260501224109 6 231 0.0 3.2 0.00 0.00 0.00 70 1023.2
20260501223106 7 231 1.6 3.2 0.00 0.00 0.00 69 1023.3
20260501222110 7 231 1.6 6.4 0.00 0.00 0.00 67 1023.3
20260501221106 7 228 3.2 6.4 0.00 0.00 0.00 67 1023.4
20260501220106 7 239 1.6 6.4 0.00 0.00 0.00 66 1023.5
20260501215109 8 238 3.2 8.0 0.00 0.00 0.00 65 1023.6
20260501214035 8 255 3.2 6.4 0.00 0.00 0.00 63 1023.7
20260501213038 9 257 1.6 4.8 0.00 0.00 0.00 59 1023.8
20260501212035 10 258 4.8 9.7 0.00 0.00 0.00 58 1023.7
20260501211037 10 223 6.4 11.3 0.00 0.00 0.00 57 1023.7
20260501210034 10 217 6.4 9.7 0.00 0.00 0.00 58 1023.8
20260501205034 10 229 4.8 8.0 0.00 0.00 0.00 59 1023.8
20260501204035 10 207 3.2 8.0 0.00 0.00 0.00 58 1023.8
20260501203034 11 258 3.2 8.0 0.00 0.00 0.00 57 1024.0
20260501202034 11 261 3.2 9.7 0.00 0.00 0.00 56 1024.0
20260501201032 11 243 3.2 8.0 0.00 0.00 0.00 54 1024.1